Time,TemperatureF,DewpointF,PressureIn,WindDirection,WindDirectionDegrees,WindSpeedMPH,WindSpeedGustMPH,Humidity,HourlyPrecipIn,Conditions,Clouds,dailyrainin,SoftwareType,DateUTC
2013-02-24 00:00:00,42.3,41.2,30.62,NW,308,1.0,3.0,96,0.00,,,0.08,WeatherCatV1.14B232,2013-02-24 05:00:00,
2013-02-24 00:05:00,42.5,41.2,30.61,NNE,14,1.0,1.0,95,0.00,,,0.00,WeatherCatV1.14B232,2013-02-24 05:05:00,
2013-02-24 00:10:00,42.5,41.2,30.61,ENE,70,1.0,7.0,95,0.00,,,0.00,WeatherCatV1.14B232,2013-02-24 05:10:00,
2013-02-24 00:15:00,42.6,41.3,30.61,NE,46,1.0,3.0,95,0.00,,,0.00,WeatherCatV1.14B232,2013-02-24 05:15:00,
2013-02-24 00:20:00,42.7,41.4,30.61,WNW,300,1.0,2.0,95,0.00,,,0.00,WeatherCatV1.14B232,2013-02-24 05:20:00,
2013-02-24 00:25:00,42.9,41.3,30.61,East,79,0.0,4.0,94,0.00,,,0.00,WeatherCatV1.14B232,2013-02-24 05:25:00,
2013-02-24 00:30:00,43.1,41.5,30.61,NNW,330,2.0,8.0,94,0.00,,,0.00,WeatherCatV1.14B232,2013-02-24 05:30:00,
2013-02-24 00:35:00,43.2,41.0,30.61,NNW,332,4.0,4.0,92,0.00,,,0.00,WeatherCatV1.14B232,2013-02-24 05:35:00,
2013-02-24 00:40:00,43.3,41.1,30.61,NNW,333,4.0,11.0,92,0.00,,,0.00,WeatherCatV1.14B232,2013-02-24 05:40:00,
2013-02-24 00:45:00,43.5,41.0,30.62,WNW,287,0.0,4.0,91,0.00,,,0.00,WeatherCatV1.14B232,2013-02-24 05:45:00,
2013-02-24 00:50:00,43.5,41.0,30.61,NW,325,5.0,5.0,91,0.00,,,0.00,WeatherCatV1.14B232,2013-02-24 05:50:00,
2013-02-24 00:55:00,43.6,40.9,30.60,NNW,338,2.0,4.0,90,0.00,,,0.00,WeatherCatV1.14B232,2013-02-24 05:55:00,
2013-02-24 01:00:00,43.8,41.1,30.61,NNW,347,2.0,4.0,90,0.00,,,0.00,WeatherCatV1.14B232,2013-02-24 06:00:00,
2013-02-24 01:05:00,44.0,41.0,30.61,West,266,0.0,8.0,89,0.00,,,0.00,WeatherCatV1.14B232,2013-02-24 06:05:00,
2013-02-24 01:10:00,44.1,41.1,30.61,NNW,336,1.0,5.0,89,0.00,,,0.00,WeatherCatV1.14B232,2013-02-24 06:10:00,
2013-02-24 01:15:00,44.3,41.3,30.61,NNE,27,1.0,5.0,89,0.00,,,0.00,WeatherCatV1.14B232,2013-02-24 06:15:00,
2013-02-24 01:20:00,44.3,41.0,30.60,NNW,333,0.0,3.0,88,0.00,,,0.00,WeatherCatV1.14B232,2013-02-24 06:20:00,
2013-02-24 01:25:00,44.2,40.9,30.61,West,264,1.0,5.0,88,0.00,,,0.00,WeatherCatV1.14B232,2013-02-24 06:25:00,
2013-02-24 01:30:00,44.2,40.9,30.61,NNW,329,0.0,2.0,88,0.00,,,0.00,WeatherCatV1.14B232,2013-02-24 06:30:00,
2013-02-24 01:35:00,44.0,40.7,30.60,West,271,3.0,4.0,88,0.00,,,0.00,WeatherCatV1.14B232,2013-02-24 06:35:00,
2013-02-24 01:40:00,43.8,40.5,30.60,NW,308,1.0,3.0,88,0.00,,,0.00,WeatherCatV1.14B232,2013-02-24 06:40:00,
2013-02-24 01:45:00,43.7,40.4,30.59,North,6,1.0,4.0,88,0.00,,,0.00,WeatherCatV1.14B232,2013-02-24 06:45:00,
2013-02-24 01:50:00,43.7,40.4,30.59,North,9,4.0,4.0,88,0.00,,,0.00,WeatherCatV1.14B232,2013-02-24 06:50:00,
2013-02-24 01:55:00,43.6,40.3,30.60,NNW,327,1.0,1.0,88,0.00,,,0.00,WeatherCatV1.14B232,2013-02-24 06:55:00,
2013-02-24 02:00:00,43.5,40.5,30.60,WNW,285,4.0,6.0,89,0.00,,,0.00,WeatherCatV1.14B232,2013-02-24 07:00:00,
2013-02-24 02:05:00,43.5,40.5,30.61,West,269,4.0,4.0,89,0.00,,,0.00,WeatherCatV1.14B232,2013-02-24 07:05:00,
2013-02-24 02:10:00,43.6,40.9,30.61,NW,324,3.0,7.0,90,0.00,,,0.00,WeatherCatV1.14B232,2013-02-24 07:10:00,
2013-02-24 02:15:00,43.8,41.1,30.61,NW,321,2.0,4.0,90,0.00,,,0.00,WeatherCatV1.14B232,2013-02-24 07:15:00,
2013-02-24 02:20:00,43.7,41.0,30.61,WNW,301,1.0,2.0,90,0.00,,,0.00,WeatherCatV1.14B232,2013-02-24 07:20:00,
2013-02-24 02:25:00,43.7,41.0,30.61,NW,325,2.0,7.0,90,0.00,,,0.00,WeatherCatV1.14B232,2013-02-24 07:25:00,
2013-02-24 02:30:00,43.8,41.1,30.60,NW,326,9.0,11.0,90,0.00,,,0.00,WeatherCatV1.14B232,2013-02-24 07:30:00,
2013-02-24 02:35:00,43.8,40.8,30.61,NNW,335,4.0,9.0,89,0.00,,,0.00,WeatherCatV1.14B232,2013-02-24 07:35:00,
2013-02-24 02:40:00,43.8,40.5,30.60,WNW,288,7.0,9.0,88,0.00,,,0.00,WeatherCatV1.14B232,2013-02-24 07:40:00,
2013-02-24 02:45:00,43.7,40.1,30.60,NNW,338,3.0,9.0,87,0.00,,,0.00,WeatherCatV1.14B232,2013-02-24 07:45:00,
2013-02-24 02:50:00,43.7,40.1,30.60,NNW,338,5.0,7.0,87,0.00,,,0.00,WeatherCatV1.14B232,2013-02-24 07:50:00,
2013-02-24 02:55:00,43.6,40.0,30.60,NNE,27,2.0,10.0,87,0.00,,,0.00,WeatherCatV1.14B232,2013-02-24 07:55:00,
2013-02-24 03:00:00,43.5,39.9,30.60,NNW,333,6.0,10.0,87,0.00,,,0.00,WeatherCatV1.14B232,2013-02-24 08:00:00,
2013-02-24 03:05:00,43.5,39.9,30.60,NE,34,1.0,9.0,87,0.00,,,0.00,WeatherCatV1.14B232,2013-02-24 08:05:00,
2013-02-24 03:10:00,43.3,39.4,30.60,NNW,330,4.0,5.0,86,0.00,,,0.00,WeatherCatV1.14B232,2013-02-24 08:10:00,
2013-02-24 03:15:00,43.1,39.2,30.60,WSW,247,4.0,4.0,86,0.00,,,0.00,WeatherCatV1.14B232,2013-02-24 08:15:00,
2013-02-24 03:20:00,42.9,39.0,30.60,NW,323,2.0,6.0,86,0.00,,,0.00,WeatherCatV1.14B232,2013-02-24 08:20:00,
2013-02-24 03:25:00,42.7,38.8,30.60,NNW,327,1.0,4.0,86,0.00,,,0.00,WeatherCatV1.14B232,2013-02-24 08:25:00,
2013-02-24 03:30:00,42.6,38.7,30.60,NW,316,4.0,12.0,86,0.00,,,0.00,WeatherCatV1.14B232,2013-02-24 08:30:00,
2013-02-24 03:35:00,42.4,38.5,30.59,WSW,257,3.0,8.0,86,0.00,,,0.00,WeatherCatV1.14B232,2013-02-24 08:35:00,
2013-02-24 03:40:00,42.1,38.2,30.59,NW,323,4.0,9.0,86,0.00,,,0.00,WeatherCatV1.14B232,2013-02-24 08:40:00,
2013-02-24 03:45:00,41.9,37.7,30.59,NE,46,1.0,10.0,85,0.00,,,0.00,WeatherCatV1.14B232,2013-02-24 08:45:00,
2013-02-24 03:50:00,41.7,37.5,30.60,NW,321,4.0,12.0,85,0.00,,,0.00,WeatherCatV1.14B232,2013-02-24 08:50:00,
2013-02-24 03:55:00,41.5,37.3,30.60,NE,44,3.0,4.0,85,0.00,,,0.00,WeatherCatV1.14B232,2013-02-24 08:55:00,
2013-02-24 04:00:00,41.4,37.5,30.60,NNW,345,1.0,12.0,86,0.00,,,0.00,WeatherCatV1.14B232,2013-02-24 09:00:00,
2013-02-24 04:05:00,41.2,37.0,30.60,NW,323,6.0,7.0,85,0.00,,,0.00,WeatherCatV1.14B232,2013-02-24 09:05:00,
2013-02-24 04:10:00,41.0,36.8,30.60,NW,316,4.0,9.0,85,0.00,,,0.00,WeatherCatV1.14B232,2013-02-24 09:10:00,
2013-02-24 04:15:00,40.9,36.7,30.60,WNW,293,5.0,9.0,85,0.00,,,0.00,WeatherCatV1.14B232,2013-02-24 09:15:00,
2013-02-24 04:20:00,40.8,36.6,30.60,North,11,5.0,10.0,85,0.00,,,0.00,WeatherCatV1.14B232,2013-02-24 09:20:00,
2013-02-24 04:25:00,40.7,36.2,30.60,NNE,16,0.0,6.0,84,0.00,,,0.00,WeatherCatV1.14B232,2013-02-24 09:25:00,
2013-02-24 04:30:00,40.4,36.0,30.60,NW,322,0.0,2.0,84,0.00,,,0.00,WeatherCatV1.14B232,2013-02-24 09:30:00,
2013-02-24 04:35:00,40.2,35.8,30.61,NW,311,2.0,11.0,84,0.00,,,0.00,WeatherCatV1.14B232,2013-02-24 09:35:00,
2013-02-24 04:40:00,40.1,35.4,30.61,NE,44,1.0,5.0,83,0.00,,,0.00,WeatherCatV1.14B232,2013-02-24 09:40:00,
2013-02-24 04:45:00,39.9,35.2,30.61,NE,37,3.0,9.0,83,0.00,,,0.00,WeatherCatV1.14B232,2013-02-24 09:45:00,
2013-02-24 04:50:00,39.8,34.8,30.61,NW,310,5.0,6.0,82,0.00,,,0.00,WeatherCatV1.14B232,2013-02-24 09:50:00,
2013-02-24 04:55:00,39.7,34.4,30.61,NNW,336,7.0,10.0,81,0.00,,,0.00,WeatherCatV1.14B232,2013-02-24 09:55:00,
2013-02-24 05:00:00,39.6,34.3,30.61,NW,312,2.0,10.0,81,0.00,,,0.00,WeatherCatV1.14B232,2013-02-24 10:00:00,
2013-02-24 05:05:00,39.5,33.8,30.62,NNW,332,4.0,9.0,80,0.00,,,0.00,WeatherCatV1.14B232,2013-02-24 10:05:00,
2013-02-24 05:10:00,39.5,33.8,30.62,NNW,338,3.0,10.0,80,0.00,,,0.00,WeatherCatV1.14B232,2013-02-24 10:10:00,
2013-02-24 05:15:00,39.4,33.8,30.62,North,11,9.0,14.0,80,0.00,,,0.00,WeatherCatV1.14B232,2013-02-24 10:15:00,
2013-02-24 05:20:00,39.2,33.6,30.62,NNE,20,3.0,10.0,80,0.00,,,0.00,WeatherCatV1.14B232,2013-02-24 10:20:00,
2013-02-24 05:25:00,39.2,33.2,30.62,NW,318,2.0,4.0,79,0.00,,,0.00,WeatherCatV1.14B232,2013-02-24 10:25:00,
2013-02-24 05:30:00,39.1,33.5,30.62,NNW,332,4.0,12.0,80,0.00,,,0.00,WeatherCatV1.14B232,2013-02-24 10:30:00,
2013-02-24 05:35:00,39.1,33.5,30.62,NW,322,2.0,5.0,80,0.00,,,0.00,WeatherCatV1.14B232,2013-02-24 10:35:00,
2013-02-24 05:40:00,38.9,33.3,30.62,WNW,303,3.0,5.0,80,0.00,,,0.00,WeatherCatV1.14B232,2013-02-24 10:40:00,
2013-02-24 05:45:00,38.9,33.3,30.63,North,359,3.0,12.0,80,0.00,,,0.00,WeatherCatV1.14B232,2013-02-24 10:45:00,
2013-02-24 05:50:00,38.8,33.2,30.63,NNE,12,2.0,9.0,80,0.00,,,0.00,WeatherCatV1.14B232,2013-02-24 10:50:00,
2013-02-24 05:55:00,38.7,33.1,30.64,WNW,289,3.0,7.0,80,0.00,,,0.00,WeatherCatV1.14B232,2013-02-24 10:55:00,
2013-02-24 06:00:00,38.6,33.0,30.64,NW,304,2.0,11.0,80,0.00,,,0.00,WeatherCatV1.14B232,2013-02-24 11:00:00,
2013-02-24 06:05:00,38.5,32.9,30.64,NW,304,5.0,7.0,80,0.00,,,0.00,WeatherCatV1.14B232,2013-02-24 11:05:00,
2013-02-24 06:10:00,38.4,32.8,30.65,NNE,12,2.0,7.0,80,0.00,,,0.00,WeatherCatV1.14B232,2013-02-24 11:10:00,
2013-02-24 06:15:00,38.2,32.6,30.65,NW,319,4.0,7.0,80,0.00,,,0.00,WeatherCatV1.14B232,2013-02-24 11:15:00,
2013-02-24 06:20:00,38.1,32.8,30.65,NNE,27,4.0,13.0,81,0.00,,,0.00,WeatherCatV1.14B232,2013-02-24 11:20:00,
2013-02-24 06:25:00,38.0,33.0,30.65,NW,318,2.0,11.0,82,0.00,,,0.00,WeatherCatV1.14B232,2013-02-24 11:25:00,
2013-02-24 06:30:00,37.8,32.8,30.65,NNW,343,4.0,5.0,82,0.00,,,0.00,WeatherCatV1.14B232,2013-02-24 11:30:00,
2013-02-24 06:35:00,37.7,32.7,30.65,NNW,332,5.0,13.0,82,0.00,,,0.00,WeatherCatV1.14B232,2013-02-24 11:35:00,
2013-02-24 06:40:00,37.7,32.7,30.66,NW,309,2.0,7.0,82,0.00,,,0.00,WeatherCatV1.14B232,2013-02-24 11:40:00,
2013-02-24 06:45:00,37.6,32.6,30.66,NNW,344,5.0,7.0,82,0.00,,,0.00,WeatherCatV1.14B232,2013-02-24 11:45:00,
2013-02-24 06:50:00,37.5,32.5,30.66,NNE,18,4.0,6.0,82,0.00,,,0.00,WeatherCatV1.14B232,2013-02-24 11:50:00,
2013-02-24 06:55:00,37.5,32.5,30.67,NW,311,5.0,9.0,82,0.00,,,0.00,WeatherCatV1.14B232,2013-02-24 11:55:00,
2013-02-24 07:00:00,37.5,32.5,30.67,NNW,328,6.0,10.0,82,0.00,,,0.00,WeatherCatV1.14B232,2013-02-24 12:00:00,
2013-02-24 07:05:00,37.4,32.4,30.67,NNE,29,5.0,11.0,82,0.00,,,0.00,WeatherCatV1.14B232,2013-02-24 12:05:00,
2013-02-24 07:10:00,37.3,32.0,30.67,NE,50,9.0,9.0,81,0.00,,,0.00,WeatherCatV1.14B232,2013-02-24 12:10:00,
2013-02-24 07:15:00,37.3,32.3,30.68,North,355,4.0,6.0,82,0.00,,,0.00,WeatherCatV1.14B232,2013-02-24 12:15:00,
2013-02-24 07:20:00,37.3,32.3,30.68,North,351,3.0,14.0,82,0.00,,,0.00,WeatherCatV1.14B232,2013-02-24 12:20:00,
2013-02-24 07:25:00,37.1,32.1,30.68,NNE,21,2.0,15.0,82,0.00,,,0.00,WeatherCatV1.14B232,2013-02-24 12:25:00,
2013-02-24 07:30:00,37.0,32.0,30.68,WNW,291,2.0,11.0,82,0.00,,,0.00,WeatherCatV1.14B232,2013-02-24 12:30:00,
2013-02-24 07:35:00,36.9,31.9,30.68,North,359,3.0,7.0,82,0.00,,,0.00,WeatherCatV1.14B232,2013-02-24 12:35:00,
2013-02-24 07:40:00,36.7,31.7,30.68,ESE,113,6.0,11.0,82,0.00,,,0.00,WeatherCatV1.14B232,2013-02-24 12:40:00,
2013-02-24 07:45:00,36.5,31.5,30.68,NW,308,7.0,8.0,82,0.00,,,0.00,WeatherCatV1.14B232,2013-02-24 12:45:00,
2013-02-24 07:50:00,36.4,31.4,30.69,NW,319,7.0,11.0,82,0.00,,,0.00,WeatherCatV1.14B232,2013-02-24 12:50:00,
2013-02-24 07:55:00,36.4,31.4,30.68,NNW,327,3.0,15.0,82,0.00,,,0.00,WeatherCatV1.14B232,2013-02-24 12:55:00,
2013-02-24 08:00:00,36.6,31.3,30.68,NNE,12,8.0,15.0,81,0.00,,,0.00,WeatherCatV1.14B232,2013-02-24 13:00:00,
2013-02-24 08:05:00,36.7,31.7,30.68,NW,310,3.0,6.0,82,0.00,,,0.00,WeatherCatV1.14B232,2013-02-24 13:05:00,
2013-02-24 08:10:00,36.7,31.4,30.68,NNE,32,5.0,10.0,81,0.00,,,0.00,WeatherCatV1.14B232,2013-02-24 13:10:00,
2013-02-24 08:15:00,36.6,31.3,30.69,NNW,341,7.0,12.0,81,0.00,,,0.00,WeatherCatV1.14B232,2013-02-24 13:15:00,
2013-02-24 08:20:00,36.7,31.4,30.69,SW,235,3.0,11.0,81,0.00,,,0.00,WeatherCatV1.14B232,2013-02-24 13:20:00,
2013-02-24 08:25:00,36.7,31.4,30.69,NNW,329,5.0,10.0,81,0.00,,,0.00,WeatherCatV1.14B232,2013-02-24 13:25:00,
2013-02-24 08:30:00,36.8,31.2,30.69,NNE,27,6.0,12.0,80,0.00,,,0.00,WeatherCatV1.14B232,2013-02-24 13:30:00,
2013-02-24 08:35:00,37.0,31.4,30.69,WNW,302,5.0,13.0,80,0.00,,,0.00,WeatherCatV1.14B232,2013-02-24 13:35:00,
2013-02-24 08:40:00,37.1,31.5,30.69,North,349,12.0,12.0,80,0.00,,,0.00,WeatherCatV1.14B232,2013-02-24 13:40:00,
2013-02-24 08:45:00,37.3,31.4,30.70,NW,322,5.0,10.0,79,0.00,,,0.00,WeatherCatV1.14B232,2013-02-24 13:45:00,
2013-02-24 08:50:00,37.5,31.6,30.71,WNW,293,6.0,7.0,79,0.00,,,0.00,WeatherCatV1.14B232,2013-02-24 13:50:00,
2013-02-24 08:55:00,37.7,31.2,30.70,NW,321,8.0,9.0,77,0.00,,,0.00,WeatherCatV1.14B232,2013-02-24 13:55:00,
2013-02-24 09:00:00,38.0,31.4,30.70,West,281,5.0,9.0,77,0.00,,,0.00,WeatherCatV1.14B232,2013-02-24 14:00:00,
2013-02-24 09:05:00,38.2,31.0,30.70,NE,53,1.0,8.0,75,0.00,,,0.00,WeatherCatV1.14B232,2013-02-24 14:05:00,
2013-02-24 09:10:00,38.5,30.9,30.72,NNW,332,6.0,7.0,74,0.00,,,0.00,WeatherCatV1.14B232,2013-02-24 14:10:00,
2013-02-24 09:15:00,38.7,30.8,30.71,NW,304,5.0,13.0,73,0.00,,,0.00,WeatherCatV1.14B232,2013-02-24 14:15:00,
2013-02-24 09:20:00,39.0,31.1,30.72,NW,319,7.0,7.0,73,0.00,,,0.00,WeatherCatV1.14B232,2013-02-24 14:20:00,
2013-02-24 09:25:00,39.2,30.6,30.72,North,356,5.0,8.0,71,0.00,,,0.00,WeatherCatV1.14B232,2013-02-24 14:25:00,
2013-02-24 09:30:00,39.2,30.3,30.72,NW,317,3.0,12.0,70,0.00,,,0.00,WeatherCatV1.14B232,2013-02-24 14:30:00,
2013-02-24 09:35:00,39.3,29.3,30.71,NNE,20,3.0,16.0,67,0.00,,,0.00,WeatherCatV1.14B232,2013-02-24 14:35:00,
2013-02-24 09:40:00,39.5,29.5,30.71,NNW,345,3.0,8.0,67,0.00,,,0.00,WeatherCatV1.14B232,2013-02-24 14:40:00,
2013-02-24 09:45:00,39.9,29.5,30.71,WNW,295,7.0,9.0,66,0.00,,,0.00,WeatherCatV1.14B232,2013-02-24 14:45:00,
2013-02-24 09:46:00,40.0,28.8,30.71,WNW,298,6.0,11.0,64,0.00,,,0.00,WeatherCatV1.14B232,2013-02-24 14:46:00,
2013-02-24 09:51:00,40.1,28.5,30.71,WNW,285,7.0,13.0,63,0.00,,,0.00,WeatherCatV1.14B232,2013-02-24 14:51:00,
2013-02-24 09:56:00,40.0,28.0,30.71,NW,309,4.0,7.0,62,0.00,,,0.00,WeatherCatV1.14B232,2013-02-24 14:56:00,
2013-02-24 10:01:00,40.0,27.7,30.70,WNW,295,5.0,13.0,61,0.00,,,0.00,WeatherCatV1.14B232,2013-02-24 15:01:00,
2013-02-24 10:06:00,40.4,28.8,30.71,NW,316,3.0,8.0,63,0.00,,,0.00,WeatherCatV1.14B232,2013-02-24 15:06:00,
2013-02-24 10:11:00,40.5,27.3,30.71,NW,309,4.0,11.0,59,0.00,,,0.00,WeatherCatV1.14B232,2013-02-24 15:11:00,
2013-02-24 10:16:00,40.6,26.6,30.72,NNE,24,6.0,14.0,57,0.00,,,0.00,WeatherCatV1.14B232,2013-02-24 15:16:00,
2013-02-24 10:21:00,40.8,27.2,30.71,WNW,295,3.0,16.0,58,0.00,,,0.00,WeatherCatV1.14B232,2013-02-24 15:21:00,
2013-02-24 10:26:00,40.9,26.9,30.71,NNE,27,4.0,16.0,57,0.00,,,0.00,WeatherCatV1.14B232,2013-02-24 15:26:00,
2013-02-24 10:31:00,41.1,27.5,30.71,NNW,328,4.0,12.0,58,0.00,,,0.00,WeatherCatV1.14B232,2013-02-24 15:31:00,
2013-02-24 10:36:00,41.1,26.6,30.71,NE,36,4.0,13.0,56,0.00,,,0.00,WeatherCatV1.14B232,2013-02-24 15:36:00,
2013-02-24 10:41:00,41.3,26.8,30.72,NW,315,9.0,14.0,56,0.00,,,0.00,WeatherCatV1.14B232,2013-02-24 15:41:00,
2013-02-24 10:46:00,41.6,26.6,30.71,North,0,8.0,12.0,55,0.00,,,0.00,WeatherCatV1.14B232,2013-02-24 15:46:00,
2013-02-24 10:51:00,41.9,27.4,30.71,North,10,4.0,7.0,56,0.00,,,0.00,WeatherCatV1.14B232,2013-02-24 15:51:00,
2013-02-24 10:56:00,41.8,26.4,30.72,NNW,340,5.0,19.0,54,0.00,,,0.00,WeatherCatV1.14B232,2013-02-24 15:56:00,
2013-02-24 11:01:00,41.9,26.9,30.72,NNE,29,10.0,13.0,55,0.00,,,0.00,WeatherCatV1.14B232,2013-02-24 16:01:00,
2013-02-24 11:06:00,42.0,27.0,30.73,WNW,294,10.0,12.0,55,0.00,,,0.00,WeatherCatV1.14B232,2013-02-24 16:06:00,
2013-02-24 11:11:00,42.4,26.5,30.72,NNW,328,4.0,12.0,53,0.00,,,0.00,WeatherCatV1.14B232,2013-02-24 16:11:00,
2013-02-24 11:16:00,42.6,26.7,30.73,NNE,31,5.0,7.0,53,0.00,,,0.00,WeatherCatV1.14B232,2013-02-24 16:16:00,
2013-02-24 11:21:00,42.6,25.8,30.73,NW,323,3.0,15.0,51,0.00,,,0.00,WeatherCatV1.14B232,2013-02-24 16:21:00,
2013-02-24 11:26:00,42.7,26.3,30.73,WNW,287,3.0,11.0,52,0.00,,,0.00,WeatherCatV1.14B232,2013-02-24 16:26:00,
2013-02-24 11:31:00,42.9,27.0,30.73,WNW,287,4.0,10.0,53,0.00,,,0.00,WeatherCatV1.14B232,2013-02-24 16:31:00,
2013-02-24 11:36:00,43.1,26.7,30.73,NW,323,4.0,15.0,52,0.00,,,0.00,WeatherCatV1.14B232,2013-02-24 16:36:00,
2013-02-24 11:41:00,43.2,26.8,30.72,NNW,338,6.0,10.0,52,0.00,,,0.00,WeatherCatV1.14B232,2013-02-24 16:41:00,
2013-02-24 11:46:00,43.4,27.4,30.73,West,266,3.0,7.0,53,0.00,,,0.00,WeatherCatV1.14B232,2013-02-24 16:46:00,
2013-02-24 11:51:00,43.4,27.0,30.72,NW,319,5.0,12.0,52,0.00,,,0.00,WeatherCatV1.14B232,2013-02-24 16:51:00,
2013-02-24 11:56:00,43.3,26.4,30.72,WNW,293,6.0,15.0,51,0.00,,,0.00,WeatherCatV1.14B232,2013-02-24 16:56:00,
2013-02-24 12:01:00,43.5,25.6,30.72,WNW,300,6.0,13.0,49,0.00,,,0.00,WeatherCatV1.14B232,2013-02-24 17:01:00,
2013-02-24 12:06:00,43.4,25.5,30.72,NW,304,2.0,17.0,49,0.00,,,0.00,WeatherCatV1.14B232,2013-02-24 17:06:00,
2013-02-24 12:11:00,43.4,26.0,30.72,NNE,32,5.0,17.0,50,0.00,,,0.00,WeatherCatV1.14B232,2013-02-24 17:11:00,
2013-02-24 12:16:00,43.5,25.1,30.72,West,262,9.0,13.0,48,0.00,,,0.00,WeatherCatV1.14B232,2013-02-24 17:16:00,
2013-02-24 12:21:00,43.6,25.2,30.72,North,359,6.0,11.0,48,0.00,,,0.00,WeatherCatV1.14B232,2013-02-24 17:21:00,
2013-02-24 12:26:00,43.5,24.6,30.73,NW,311,6.0,21.0,47,0.00,,,0.00,WeatherCatV1.14B232,2013-02-24 17:26:00,
2013-02-24 12:31:00,43.6,25.7,30.73,WNW,289,3.0,13.0,49,0.00,,,0.00,WeatherCatV1.14B232,2013-02-24 17:31:00,
2013-02-24 12:36:00,43.7,25.8,30.72,NW,310,7.0,10.0,49,0.00,,,0.00,WeatherCatV1.14B232,2013-02-24 17:36:00,
2013-02-24 12:41:00,43.8,24.9,30.72,North,349,7.0,12.0,47,0.00,,,0.00,WeatherCatV1.14B232,2013-02-24 17:41:00,
2013-02-24 12:46:00,44.0,26.6,30.72,NNW,327,2.0,11.0,50,0.00,,,0.00,WeatherCatV1.14B232,2013-02-24 17:46:00,
2013-02-24 12:51:00,44.3,26.4,30.72,WNW,299,6.0,10.0,49,0.00,,,0.00,WeatherCatV1.14B232,2013-02-24 17:51:00,
2013-02-24 12:56:00,44.8,26.8,30.72,NW,326,3.0,9.0,49,0.00,,,0.00,WeatherCatV1.14B232,2013-02-24 17:56:00,
2013-02-24 13:01:00,44.8,25.8,30.72,NW,326,3.0,14.0,47,0.00,,,0.00,WeatherCatV1.14B232,2013-02-24 18:01:00,
2013-02-24 13:06:00,44.7,25.7,30.72,NNW,333,5.0,16.0,47,0.00,,,0.00,WeatherCatV1.14B232,2013-02-24 18:06:00,
2013-02-24 13:11:00,44.7,25.7,30.72,NE,34,9.0,16.0,47,0.00,,,0.00,WeatherCatV1.14B232,2013-02-24 18:11:00,
2013-02-24 13:16:00,44.6,26.1,30.72,East,89,3.0,15.0,48,0.00,,,0.00,WeatherCatV1.14B232,2013-02-24 18:16:00,
2013-02-24 13:21:00,44.6,25.6,30.72,NNW,336,4.0,18.0,47,0.00,,,0.00,WeatherCatV1.14B232,2013-02-24 18:21:00,
2013-02-24 13:26:00,44.6,24.6,30.72,NNW,346,5.0,15.0,45,0.00,,,0.00,WeatherCatV1.14B232,2013-02-24 18:26:00,
2013-02-24 13:31:00,44.5,25.0,30.72,NNE,25,9.0,16.0,46,0.00,,,0.00,WeatherCatV1.14B232,2013-02-24 18:31:00,
2013-02-24 13:36:00,44.8,24.8,30.72,North,356,7.0,13.0,45,0.00,,,0.00,WeatherCatV1.14B232,2013-02-24 18:36:00,
2013-02-24 13:41:00,44.8,25.8,30.71,NNW,336,6.0,11.0,47,0.00,,,0.00,WeatherCatV1.14B232,2013-02-24 18:41:00,
2013-02-24 13:46:00,45.0,26.5,30.71,WNW,293,5.0,12.0,48,0.00,,,0.00,WeatherCatV1.14B232,2013-02-24 18:46:00,
2013-02-24 13:51:00,45.2,26.2,30.71,WNW,293,10.0,11.0,47,0.00,,,0.00,WeatherCatV1.14B232,2013-02-24 18:51:00,
2013-02-24 13:56:00,45.2,25.7,30.71,West,272,5.0,13.0,46,0.00,,,0.00,WeatherCatV1.14B232,2013-02-24 18:56:00,
2013-02-24 14:01:00,45.1,24.5,30.71,NNW,327,4.0,17.0,44,0.00,,,0.00,WeatherCatV1.14B232,2013-02-24 19:01:00,
2013-02-24 14:06:00,45.2,25.7,30.71,NNW,345,9.0,15.0,46,0.00,,,0.00,WeatherCatV1.14B232,2013-02-24 19:06:00,
2013-02-24 14:11:00,45.3,24.7,30.72,North,11,5.0,15.0,44,0.00,,,0.00,WeatherCatV1.14B232,2013-02-24 19:11:00,
2013-02-24 14:16:00,45.2,24.6,30.71,NNE,27,5.0,15.0,44,0.00,,,0.00,WeatherCatV1.14B232,2013-02-24 19:16:00,
2013-02-24 14:21:00,45.3,25.2,30.71,NW,319,10.0,10.0,45,0.00,,,0.00,WeatherCatV1.14B232,2013-02-24 19:21:00,
2013-02-24 14:26:00,45.7,25.0,30.72,NE,34,5.0,15.0,44,0.00,,,0.00,WeatherCatV1.14B232,2013-02-24 19:26:00,
2013-02-24 14:31:00,45.9,25.8,30.72,NNW,338,4.0,12.0,45,0.00,,,0.00,WeatherCatV1.14B232,2013-02-24 19:31:00,
2013-02-24 14:36:00,45.8,25.1,30.72,NNE,18,5.0,16.0,44,0.00,,,0.00,WeatherCatV1.14B232,2013-02-24 19:36:00,
2013-02-24 14:41:00,45.6,25.0,30.72,NW,315,10.0,12.0,44,0.00,,,0.00,WeatherCatV1.14B232,2013-02-24 19:41:00,
2013-02-24 14:46:00,45.6,25.0,30.72,WNW,296,9.0,19.0,44,0.00,,,0.00,WeatherCatV1.14B232,2013-02-24 19:46:00,
2013-02-24 14:51:00,45.5,24.3,30.72,NE,45,15.0,15.0,43,0.00,,,0.00,WeatherCatV1.14B232,2013-02-24 19:51:00,
2013-02-24 14:56:00,45.4,24.8,30.72,West,276,11.0,12.0,44,0.00,,,0.00,WeatherCatV1.14B232,2013-02-24 19:56:00,
2013-02-24 15:01:00,45.3,24.7,30.72,NE,47,7.0,19.0,44,0.00,,,0.00,WeatherCatV1.14B232,2013-02-24 20:01:00,
2013-02-24 15:06:00,45.3,25.2,30.72,West,278,3.0,10.0,45,0.00,,,0.00,WeatherCatV1.14B232,2013-02-24 20:06:00,
2013-02-24 15:11:00,45.7,25.0,30.72,WNW,285,3.0,9.0,44,0.00,,,0.00,WeatherCatV1.14B232,2013-02-24 20:11:00,
2013-02-24 15:16:00,45.7,25.0,30.72,NNE,18,5.0,12.0,44,0.00,,,0.00,WeatherCatV1.14B232,2013-02-24 20:16:00,
2013-02-24 15:21:00,45.5,24.9,30.71,WNW,291,7.0,16.0,44,0.00,,,0.00,WeatherCatV1.14B232,2013-02-24 20:21:00,
2013-02-24 15:26:00,45.5,25.9,30.72,ENE,74,7.0,13.0,46,0.00,,,0.00,WeatherCatV1.14B232,2013-02-24 20:26:00,
2013-02-24 15:31:00,45.7,25.6,30.72,North,349,23.0,23.0,45,0.00,,,0.00,WeatherCatV1.14B232,2013-02-24 20:31:00,
2013-02-24 15:36:00,45.7,24.5,30.72,NNW,338,4.0,13.0,43,0.00,,,0.00,WeatherCatV1.14B232,2013-02-24 20:36:00,
2013-02-24 15:41:00,45.8,25.1,30.72,NNE,26,4.0,7.0,44,0.00,,,0.00,WeatherCatV1.14B232,2013-02-24 20:41:00,
2013-02-24 15:46:00,45.9,25.2,30.72,NW,315,7.0,12.0,44,0.00,,,0.00,WeatherCatV1.14B232,2013-02-24 20:46:00,
2013-02-24 15:51:00,45.8,25.1,30.72,West,269,5.0,10.0,44,0.00,,,0.00,WeatherCatV1.14B232,2013-02-24 20:51:00,
2013-02-24 15:56:00,45.8,25.7,30.72,NW,304,3.0,11.0,45,0.00,,,0.00,WeatherCatV1.14B232,2013-02-24 20:56:00,
2013-02-24 16:01:00,45.9,25.8,30.72,NE,39,3.0,11.0,45,0.00,,,0.00,WeatherCatV1.14B232,2013-02-24 21:01:00,
2013-02-24 16:06:00,45.8,24.6,30.72,NNE,25,6.0,14.0,43,0.00,,,0.00,WeatherCatV1.14B232,2013-02-24 21:06:00,
2013-02-24 16:11:00,45.7,23.9,30.72,West,267,7.0,8.0,42,0.00,,,0.00,WeatherCatV1.14B232,2013-02-24 21:11:00,
2013-02-24 16:16:00,45.6,24.4,30.72,NW,308,4.0,10.0,43,0.00,,,0.00,WeatherCatV1.14B232,2013-02-24 21:16:00,
2013-02-24 16:21:00,45.7,23.9,30.72,WNW,302,3.0,17.0,42,0.00,,,0.00,WeatherCatV1.14B232,2013-02-24 21:21:00,
2013-02-24 16:26:00,45.7,23.9,30.73,NNE,15,6.0,11.0,42,0.00,,,0.00,WeatherCatV1.14B232,2013-02-24 21:26:00,
2013-02-24 16:31:00,45.8,24.6,30.73,NNW,344,7.0,10.0,43,0.00,,,0.00,WeatherCatV1.14B232,2013-02-24 21:31:00,
2013-02-24 16:36:00,45.7,25.0,30.73,NW,315,7.0,8.0,44,0.00,,,0.00,WeatherCatV1.14B232,2013-02-24 21:36:00,
2013-02-24 16:41:00,45.7,24.5,30.73,NW,325,6.0,13.0,43,0.00,,,0.00,WeatherCatV1.14B232,2013-02-24 21:41:00,
2013-02-24 16:46:00,45.5,24.9,30.73,WNW,283,5.0,11.0,44,0.00,,,0.00,WeatherCatV1.14B232,2013-02-24 21:46:00,
2013-02-24 16:51:00,45.5,24.9,30.73,NNW,343,4.0,12.0,44,0.00,,,0.00,WeatherCatV1.14B232,2013-02-24 21:51:00,
2013-02-24 16:56:00,45.3,25.2,30.73,NE,43,5.0,9.0,45,0.00,,,0.00,WeatherCatV1.14B232,2013-02-24 21:56:00,
2013-02-24 17:01:00,45.3,25.8,30.73,NNE,27,2.0,12.0,46,0.00,,,0.00,WeatherCatV1.14B232,2013-02-24 22:01:00,
2013-02-24 17:06:00,45.1,25.0,30.73,NNW,346,4.0,11.0,45,0.00,,,0.00,WeatherCatV1.14B232,2013-02-24 22:06:00,
2013-02-24 17:11:00,45.0,25.0,30.73,NNW,327,8.0,20.0,45,0.00,,,0.00,WeatherCatV1.14B232,2013-02-24 22:11:00,
2013-02-24 17:16:00,44.9,24.9,30.74,WNW,289,7.0,13.0,45,0.00,,,0.00,WeatherCatV1.14B232,2013-02-24 22:16:00,
2013-02-24 17:21:00,44.7,25.2,30.74,NNW,343,2.0,3.0,46,0.00,,,0.00,WeatherCatV1.14B232,2013-02-24 22:21:00,
2013-02-24 17:26:00,44.6,24.6,30.74,WNW,291,2.0,9.0,45,0.00,,,0.00,WeatherCatV1.14B232,2013-02-24 22:26:00,
2013-02-24 17:31:00,44.4,24.9,30.74,NW,308,2.0,5.0,46,0.00,,,0.00,WeatherCatV1.14B232,2013-02-24 22:31:00,
2013-02-24 17:36:00,44.2,24.2,30.74,WNW,287,10.0,12.0,45,0.00,,,0.00,WeatherCatV1.14B232,2013-02-24 22:36:00,
2013-02-24 17:41:00,44.1,24.7,30.74,NNW,338,1.0,2.0,46,0.00,,,0.00,WeatherCatV1.14B232,2013-02-24 22:41:00,
2013-02-24 17:46:00,43.9,25.0,30.75,NW,311,6.0,11.0,47,0.00,,,0.00,WeatherCatV1.14B232,2013-02-24 22:46:00,
2013-02-24 17:51:00,43.6,25.2,30.75,North,3,3.0,5.0,48,0.00,,,0.00,WeatherCatV1.14B232,2013-02-24 22:51:00,
2013-02-24 17:56:00,43.4,25.5,30.75,NW,308,2.0,5.0,49,0.00,,,0.00,WeatherCatV1.14B232,2013-02-24 22:56:00,
2013-02-24 18:01:00,43.4,25.5,30.75,WNW,286,2.0,5.0,49,0.00,,,0.00,WeatherCatV1.14B232,2013-02-24 23:01:00,
2013-02-24 18:06:00,43.3,25.9,30.75,West,269,2.0,2.0,50,0.00,,,0.00,WeatherCatV1.14B232,2013-02-24 23:06:00,
2013-02-24 18:12:00,43.1,25.7,30.75,WNW,297,2.0,3.0,50,0.00,,,0.00,WeatherCatV1.14B232,2013-02-24 23:12:00,
2013-02-24 18:17:00,42.9,25.6,30.75,West,281,0.0,3.0,50,0.00,,,0.00,WeatherCatV1.14B232,2013-02-24 23:17:00,
2013-02-24 18:22:00,42.6,25.8,30.76,NW,316,1.0,7.0,51,0.00,,,0.00,WeatherCatV1.14B232,2013-02-24 23:22:00,
2013-02-24 18:27:00,42.5,25.7,30.76,North,351,1.0,4.0,51,0.00,,,0.00,WeatherCatV1.14B232,2013-02-24 23:27:00,
2013-02-24 18:32:00,42.2,25.9,30.76,NW,319,0.0,2.0,52,0.00,,,0.00,WeatherCatV1.14B232,2013-02-24 23:32:00,
2013-02-24 18:37:00,41.9,25.6,30.76,WNW,297,0.0,1.0,52,0.00,,,0.00,WeatherCatV1.14B232,2013-02-24 23:37:00,
2013-02-24 18:42:00,41.5,25.7,30.77,North,353,0.0,1.0,53,0.00,,,0.00,WeatherCatV1.14B232,2013-02-24 23:42:00,
2013-02-24 18:47:00,41.6,25.3,30.77,NNW,329,0.0,5.0,52,0.00,,,0.00,WeatherCatV1.14B232,2013-02-24 23:47:00,
2013-02-24 18:52:00,41.4,25.6,30.77,West,276,0.0,0.0,53,0.00,,,0.00,WeatherCatV1.14B232,2013-02-24 23:52:00,
2013-02-24 18:57:00,40.8,25.5,30.77,West,269,1.0,1.0,54,0.00,,,0.00,WeatherCatV1.14B232,2013-02-24 23:57:00,
2013-02-24 19:02:00,40.4,26.0,30.78,NNW,336,0.0,0.0,56,0.00,,,0.00,WeatherCatV1.14B232,2013-02-25 00:02:00,
2013-02-24 19:07:00,39.5,26.0,30.78,NNW,336,0.0,0.0,58,0.00,,,0.00,WeatherCatV1.14B232,2013-02-25 00:07:00,
2013-02-24 19:12:00,38.8,25.7,30.78,East,79,0.0,3.0,59,0.00,,,0.00,WeatherCatV1.14B232,2013-02-25 00:12:00,
2013-02-24 19:17:00,38.6,25.5,30.78,ENE,72,0.0,0.0,59,0.00,,,0.00,WeatherCatV1.14B232,2013-02-25 00:17:00,
2013-02-24 19:22:00,38.2,25.6,30.79,ENE,72,0.0,0.0,60,0.00,,,0.00,WeatherCatV1.14B232,2013-02-25 00:22:00,
2013-02-24 19:27:00,37.6,25.8,30.79,ENE,72,0.0,0.0,62,0.00,,,0.00,WeatherCatV1.14B232,2013-02-25 00:27:00,
2013-02-24 19:32:00,36.9,25.9,30.79,ENE,72,0.0,0.0,64,0.00,,,0.00,WeatherCatV1.14B232,2013-02-25 00:32:00,
2013-02-24 19:37:00,36.5,25.9,30.79,West,271,0.0,0.0,65,0.00,,,0.00,WeatherCatV1.14B232,2013-02-25 00:37:00,
2013-02-24 19:42:00,36.2,26.3,30.80,West,278,0.0,0.0,67,0.00,,,0.00,WeatherCatV1.14B232,2013-02-25 00:42:00,
2013-02-24 19:47:00,35.9,26.4,30.80,WNW,286,0.0,1.0,68,0.00,,,0.00,WeatherCatV1.14B232,2013-02-25 00:47:00,
2013-02-24 19:52:00,35.5,26.4,30.80,WNW,286,0.0,0.0,69,0.00,,,0.00,WeatherCatV1.14B232,2013-02-25 00:52:00,
2013-02-24 19:57:00,35.0,25.9,30.80,WNW,286,0.0,0.0,69,0.00,,,0.00,WeatherCatV1.14B232,2013-02-25 00:57:00,
2013-02-24 20:02:00,34.6,25.8,30.80,WNW,287,0.0,0.0,70,0.00,,,0.00,WeatherCatV1.14B232,2013-02-25 01:02:00,
2013-02-24 20:07:00,34.1,25.7,30.80,WNW,286,0.0,0.0,71,0.00,,,0.00,WeatherCatV1.14B232,2013-02-25 01:07:00,
2013-02-24 20:12:00,33.7,26.0,30.81,WNW,291,0.0,0.0,73,0.00,,,0.00,WeatherCatV1.14B232,2013-02-25 01:12:00,
2013-02-24 20:17:00,33.5,26.1,30.81,WNW,291,0.0,0.0,74,0.00,,,0.00,WeatherCatV1.14B232,2013-02-25 01:17:00,
2013-02-24 20:22:00,33.1,26.1,30.81,WNW,290,0.0,0.0,75,0.00,,,0.00,WeatherCatV1.14B232,2013-02-25 01:22:00,
2013-02-24 20:27:00,32.9,26.2,30.81,WNW,290,0.0,0.0,76,0.00,,,0.00,WeatherCatV1.14B232,2013-02-25 01:27:00,
2013-02-24 20:32:00,32.7,26.3,30.81,WNW,284,0.0,1.0,77,0.00,,,0.00,WeatherCatV1.14B232,2013-02-25 01:32:00,
2013-02-24 20:37:00,32.4,26.0,30.82,SSW,194,1.0,1.0,77,0.00,,,0.00,WeatherCatV1.14B232,2013-02-25 01:37:00,
2013-02-24 20:42:00,32.2,26.4,30.82,SSE,166,0.0,0.0,79,0.00,,,0.00,WeatherCatV1.14B232,2013-02-25 01:42:00,
2013-02-24 20:47:00,32.3,26.5,30.82,SSE,166,1.0,1.0,79,0.00,,,0.00,WeatherCatV1.14B232,2013-02-25 01:47:00,
2013-02-24 20:52:00,32.6,26.5,30.82,WNW,295,0.0,2.0,78,0.00,,,0.00,WeatherCatV1.14B232,2013-02-25 01:52:00,
2013-02-24 20:57:00,32.9,26.8,30.82,WNW,284,0.0,2.0,78,0.00,,,0.00,WeatherCatV1.14B232,2013-02-25 01:57:00,
2013-02-24 21:02:00,33.9,26.5,30.81,WSW,249,4.0,7.0,74,0.00,,,0.00,WeatherCatV1.14B232,2013-02-25 02:02:00,
2013-02-24 21:07:00,34.7,26.6,30.81,NW,316,0.0,2.0,72,0.00,,,0.00,WeatherCatV1.14B232,2013-02-25 02:07:00,
2013-02-24 21:12:00,35.4,26.6,30.82,WNW,303,0.0,2.0,70,0.00,,,0.00,WeatherCatV1.14B232,2013-02-25 02:12:00,
2013-02-24 21:17:00,36.1,26.6,30.82,NE,41,1.0,5.0,68,0.00,,,0.00,WeatherCatV1.14B232,2013-02-25 02:17:00,
2013-02-24 21:22:00,37.0,26.7,30.82,NW,308,2.0,5.0,66,0.00,,,0.00,WeatherCatV1.14B232,2013-02-25 02:22:00,
2013-02-24 21:27:00,37.2,26.5,30.82,West,274,3.0,8.0,65,0.00,,,0.00,WeatherCatV1.14B232,2013-02-25 02:27:00,
2013-02-24 21:32:00,37.4,26.4,30.82,NW,312,3.0,9.0,64,0.00,,,0.00,WeatherCatV1.14B232,2013-02-25 02:32:00,
2013-02-24 21:37:00,37.8,26.4,30.82,NNW,327,1.0,6.0,63,0.00,,,0.00,WeatherCatV1.14B232,2013-02-25 02:37:00,
2013-02-24 21:42:00,37.6,26.2,30.82,WSW,249,1.0,2.0,63,0.00,,,0.00,WeatherCatV1.14B232,2013-02-25 02:42:00,
2013-02-24 21:47:00,37.7,25.9,30.82,West,278,2.0,6.0,62,0.00,,,0.00,WeatherCatV1.14B232,2013-02-25 02:47:00,
2013-02-24 21:52:00,37.5,26.4,30.82,North,354,0.0,1.0,64,0.00,,,0.00,WeatherCatV1.14B232,2013-02-25 02:52:00,
2013-02-24 21:57:00,36.4,25.8,30.83,NW,321,1.0,1.0,65,0.00,,,0.00,WeatherCatV1.14B232,2013-02-25 02:57:00,
2013-02-24 22:02:00,35.9,25.7,30.82,WNW,290,2.0,4.0,66,0.00,,,0.00,WeatherCatV1.14B232,2013-02-25 03:02:00,
2013-02-24 22:07:00,36.1,25.5,30.82,West,267,0.0,4.0,65,0.00,,,0.00,WeatherCatV1.14B232,2013-02-25 03:07:00,
2013-02-24 22:12:00,36.1,25.9,30.82,North,358,0.0,1.0,66,0.00,,,0.00,WeatherCatV1.14B232,2013-02-25 03:12:00,
2013-02-24 22:17:00,35.3,25.8,30.82,NNW,343,1.0,1.0,68,0.00,,,0.00,WeatherCatV1.14B232,2013-02-25 03:17:00,
2013-02-24 22:30:00,45.7,25.6,30.72,NNW,345,6.0,14.0,45,0.00,,,0.00,WeatherCatV1.14B232,2013-02-25 03:30:00,
2013-02-24 22:33:00,33.6,25.2,30.82,NNW,333,2.0,2.0,71,0.00,,,0.00,WeatherCatV1.14B232,2013-02-25 03:33:00,
2013-02-24 22:35:00,36.0,26.1,30.82,WNW,292,1.0,12.0,67,0.00,,,0.00,WeatherCatV1.14B232,2013-02-25 03:35:00,
2013-02-24 22:40:00,36.0,26.1,30.82,WNW,292,1.0,12.0,67,0.00,,,0.00,WeatherCatV1.14B232,2013-02-25 03:40:00,
2013-02-24 22:45:00,36.0,26.1,30.82,WNW,292,1.0,12.0,67,0.00,,,0.00,WeatherCatV1.14B232,2013-02-25 03:45:00,
2013-02-24 22:50:00,36.0,26.1,30.82,WNW,292,1.0,12.0,67,0.00,,,0.00,WeatherCatV1.14B232,2013-02-25 03:50:00,
2013-02-24 22:55:00,36.0,26.1,30.82,WNW,292,1.0,12.0,67,0.00,,,0.00,WeatherCatV1.14B232,2013-02-25 03:55:00,
2013-02-24 23:00:00,36.0,26.1,30.82,WNW,292,1.0,12.0,67,0.00,,,0.00,WeatherCatV1.14B232,2013-02-25 04:00:00,
2013-02-24 23:05:00,36.0,26.1,30.82,WNW,292,1.0,12.0,67,0.00,,,0.00,WeatherCatV1.14B232,2013-02-25 04:05:00,
2013-02-24 23:10:00,36.0,26.1,30.82,WNW,292,1.0,12.0,67,0.00,,,0.00,WeatherCatV1.14B232,2013-02-25 04:10:00,
2013-02-24 23:15:00,36.0,26.1,30.82,WNW,292,1.0,12.0,67,0.00,,,0.00,WeatherCatV1.14B232,2013-02-25 04:15:00,
2013-02-24 23:20:00,36.0,26.1,30.82,WNW,292,1.0,12.0,67,0.00,,,0.00,WeatherCatV1.14B232,2013-02-25 04:20:00,
2013-02-24 23:25:00,36.0,26.1,30.82,WNW,292,1.0,12.0,67,0.00,,,0.00,WeatherCatV1.14B232,2013-02-25 04:25:00,
2013-02-24 23:30:00,36.0,26.1,30.82,WNW,292,1.0,12.0,67,0.00,,,0.00,WeatherCatV1.14B232,2013-02-25 04:30:00,
2013-02-24 23:35:00,36.0,26.1,30.82,WNW,292,1.0,12.0,67,0.00,,,0.00,WeatherCatV1.14B232,2013-02-25 04:35:00,
2013-02-24 23:40:00,36.0,26.1,30.82,WNW,292,1.0,12.0,67,0.00,,,0.00,WeatherCatV1.14B232,2013-02-25 04:40:00,
2013-02-24 23:45:00,36.0,26.1,30.82,WNW,292,1.0,12.0,67,0.00,,,0.00,WeatherCatV1.14B232,2013-02-25 04:45:00,
2013-02-24 23:50:00,36.0,26.1,30.82,WNW,292,1.0,12.0,67,0.00,,,0.00,WeatherCatV1.14B232,2013-02-25 04:50:00,
2013-02-24 23:55:00,36.0,26.1,30.82,WNW,292,1.0,12.0,67,0.00,,,0.00,WeatherCatV1.14B232,2013-02-25 04:55:00,